GFSWCAN_700_temp_339.txt.gz
Temp
-1 -1 -1 -1 -1 -2 -2 -2 -2 -2 -3 -4 -4 -5 -6 -7 -7 -8 -9 -9 -10 -10 -11 -11 -11 -12 -13 -13 -14 -13 -14 -14 -14 -15 -15 -15 -14 -15 -14 -14 -15 -15 -14 -13 -13 -13 -13 -14 -13 -14 -14 -14 -13 -13
-1 -1 -1 -2 -2 -2 -2 -2 -2 -3 -3 -4 -4 -5 -6 -7 -7 -8 -8 -9 -9 -10 -10 -10 -11 -12 -12 -13 -13 -13 -14 -15 -15 -15 -16 -15 -15 -15 -15 -14 -15 -14 -15 -15 -15 -15 -15 -14 -14 -14 -14 -14 -14 -13
-2 -2 -2 -2 -2 -2 -2 -2 -2 -3 -3 -3 -4 -5 -6 -7 -7 -8 -8 -9 -9 -9 -10 -10 -10 -11 -12 -12 -12 -13 -13 -14 -14 -15 -15 -15 -15 -15 -14 -14 -15 -15 -15 -15 -15 -14 -14 -14 -14 -14 -14 -14 -14 -13
-2 -2 -2 -2 -2 -3 -3 -3 -3 -3 -3 -3 -4 -5 -6 -7 -7 -8 -8 -9 -9 -9 -9 -10 -10 -11 -11 -11 -12 -12 -13 -13 -14 -14 -15 -15 -16 -15 -15 -15 -15 -15 -15 -15 -15 -15 -15 -14 -14 -14 -14 -14 -13 -13
-2 -2 -2 -2 -3 -4 -3 -3 -3 -3 -3 -3 -4 -4 -5 -6 -7 -7 -8 -9 -9 -9 -9 -10 -10 -11 -11 -11 -11 -12 -12 -12 -13 -13 -14 -15 -15 -15 -15 -15 -15 -15 -15 -16 -16 -15 -15 -15 -14 -14 -14 -13 -13 -13
-2 -2 -2 -2 -3 -4 -3 -3 -3 -3 -3 -3 -4 -4 -5 -6 -7 -7 -8 -8 -9 -9 -9 -9 -10 -10 -11 -11 -11 -11 -11 -12 -12 -13 -13 -14 -14 -14 -14 -15 -14 -14 -14 -14 -14 -15 -15 -14 -14 -14 -14 -14 -13 -13
-2 -2 -2 -2 -3 -4 -4 -3 -3 -3 -3 -3 -4 -4 -5 -5 -7 -8 -8 -8 -8 -9 -9 -9 -10 -10 -11 -11 -10 -10 -11 -12 -12 -12 -12 -13 -13 -14 -13 -13 -13 -13 -13 -13 -13 -14 -14 -14 -14 -14 -14 -14 -14 -14
-1 -2 -2 -3 -3 -5 -4 -4 -4 -4 -4 -4 -4 -4 -4 -5 -6 -7 -7 -7 -8 -9 -9 -10 -10 -10 -10 -11 -11 -10 -11 -11 -11 -12 -12 -12 -12 -13 -13 -13 -13 -13 -13 -13 -13 -13 -13 -13 -13 -13 -13 -13 -13 -14
-2 -2 -2 -3 -3 -5 -5 -4 -4 -4 -4 -4 -4 -4 -4 -4 -6 -7 -7 -7 -8 -9 -9 -10 -11 -11 -11 -11 -11 -11 -11 -12 -12 -12 -12 -12 -12 -12 -12 -13 -13 -13 -13 -14 -14 -14 -14 -14 -13 -13 -13 -13 -13 -13
-2 -2 -3 -3 -4 -5 -5 -4 -4 -4 -4 -4 -4 -4 -4 -5 -5 -6 -7 -8 -9 -9 -9 -9 -11 -11 -11 -11 -11 -11 -12 -12 -13 -12 -12 -12 -11 -11 -12 -13 -13 -14 -14 -14 -14 -14 -14 -14 -14 -13 -13 -13 -13 -13
-2 -2 -3 -3 -4 -5 -5 -5 -5 -5 -5 -4 -4 -4 -4 -5 -6 -7 -7 -8 -9 -9 -10 -10 -11 -11 -11 -11 -11 -11 -12 -12 -13 -13 -12 -12 -11 -11 -12 -13 -13 -14 -14 -14 -14 -14 -14 -14 -14 -14 -13 -13 -13 -13
-2 -3 -3 -4 -5 -6 -6 -5 -5 -5 -5 -5 -5 -4 -4 -6 -7 -7 -8 -9 -9 -9 -10 -11 -11 -11 -11 -11 -12 -12 -12 -13 -13 -13 -12 -12 -11 -12 -12 -13 -13 -13 -13 -14 -14 -14 -14 -14 -13 -13 -13 -13 -13 -13
-3 -3 -4 -5 -6 -6 -6 -6 -6 -5 -5 -5 -5 -5 -6 -6 -6 -7 -8 -8 -9 -10 -11 -11 -12 -12 -12 -12 -12 -12 -12 -12 -13 -13 -12 -11 -11 -12 -12 -13 -13 -13 -13 -13 -13 -13 -13 -13 -13 -13 -13 -13 -13 -13
-3 -4 -5 -6 -6 -6 -6 -6 -6 -6 -6 -6 -5 -6 -6 -6 -6 -7 -8 -9 -10 -11 -11 -11 -12 -12 -12 -13 -12 -12 -13 -13 -13 -12 -11 -11 -12 -12 -13 -13 -13 -13 -13 -13 -13 -13 -13 -13 -14 -14 -13 -13 -13 -14
-4 -5 -6 -6 -7 -7 -7 -6 -6 -7 -7 -7 -7 -6 -6 -6 -7 -8 -9 -10 -10 -11 -12 -12 -12 -12 -12 -13 -13 -13 -13 -12 -12 -11 -12 -12 -13 -12 -13 -13 -13 -14 -14 -14 -14 -14 -14 -14 -14 -14 -14 -14 -14 -14
-6 -6 -7 -7 -7 -7 -7 -7 -7 -7 -7 -7 -6 -6 -6 -7 -8 -9 -10 -10 -11 -11 -12 -13 -13 -13 -13 -13 -13 -12 -12 -11 -11 -12 -12 -13 -13 -13 -13 -13 -14 -14 -14 -14 -15 -15 -15 -14 -14 -14 -14 -14 -14 -14
-7 -7 -7 -8 -8 -8 -8 -7 -7 -7 -8 -8 -8 -8 -9 -8 -9 -10 -10 -11 -11 -12 -13 -13 -14 -13 -13 -13 -13 -12 -12 -12 -12 -13 -13 -13 -14 -14 -14 -14 -14 -14 -15 -15 -15 -15 -15 -15 -15 -15 -15 -14 -14 -14
-7 -8 -8 -8 -8 -8 -8 -8 -8 -8 -7 -8 -8 -8 -9 -9 -9 -10 -10 -11 -11 -12 -13 -14 -14 -14 -14 -13 -13 -13 -13 -14 -14 -14 -14 -14 -14 -14 -14 -15 -15 -15 -15 -16 -16 -16 -16 -15 -15 -15 -15 -15 -15 -14
-8 -9 -9 -8 -8 -8 -8 -8 -8 -8 -8 -8 -8 -8 -9 -9 -10 -10 -10 -11 -12 -13 -13 -14 -14 -13 -13 -14 -14 -15 -15 -15 -14 -14 -14 -14 -14 -14 -14 -15 -15 -15 -16 -16 -16 -16 -16 -16 -16 -16 -16 -16 -15 -15
-9 -9 -9 -9 -9 -9 -9 -9 -8 -9 -8 -8 -8 -9 -9 -9 -10 -11 -11 -12 -12 -13 -13 -13 -13 -14 -15 -16 -15 -15 -15 -15 -15 -14 -14 -15 -15 -15 -15 -15 -16 -16 -16 -16 -16 -16 -16 -16 -16 -17 -16 -16 -16 -16
-9 -9 -9 -9 -9 -9 -9 -9 -9 -9 -9 -9 -9 -10 -9 -10 -11 -11 -12 -13 -13 -13 -13 -14 -15 -15 -15 -15 -16 -15 -15 -15 -15 -15 -15 -15 -15 -15 -16 -16 -16 -16 -16 -16 -16 -16 -16 -17 -17 -18 -17 -17 -17 -16
-9 -9 -9 -10 -10 -10 -9 -9 -10 -10 -10 -10 -10 -10 -10 -10 -11 -12 -13 -14 -13 -13 -14 -16 -16 -16 -16 -16 -16 -16 -15 -15 -16 -16 -16 -16 -16 -16 -16 -16 -16 -16 -17 -17 -17 -17 -17 -17 -18 -18 -18 -18 -17 -17
-9 -9 -10 -11 -11 -11 -10 -10 -11 -11 -12 -11 -11 -11 -12 -12 -12 -13 -14 -14 -14 -15 -16 -17 -17 -17 -17 -17 -17 -17 -17 -16 -16 -17 -17 -17 -17 -17 -17 -17 -17 -17 -17 -17 -17 -17 -18 -18 -19 -19 -19 -19 -18 -18
-9 -10 -11 -12 -12 -11 -11 -11 -11 -11 -12 -12 -12 -12 -13 -13 -14 -14 -15 -14 -15 -16 -16 -16 -17 -17 -17 -17 -17 -17 -17 -17 -17 -17 -17 -17 -17 -17 -17 -17 -17 -17 -18 -18 -18 -18 -18 -19 -19 -19 -19 -19 -19 -19
-11 -11 -12 -12 -12 -12 -11 -11 -11 -12 -12 -12 -13 -13 -14 -14 -15 -15 -15 -15 -16 -16 -16 -16 -16 -17 -17 -17 -18 -18 -18 -18 -18 -18 -18 -18 -18 -18 -18 -18 -18 -18 -18 -18 -18 -18 -19 -19 -19 -19 -19 -19 -19 -19
-12 -12 -12 -12 -11 -12 -12 -12 -12 -12 -13 -14 -14 -15 -15 -16 -16 -16 -16 -16 -16 -17 -17 -17 -17 -17 -18 -18 -18 -18 -18 -18 -18 -18 -18 -18 -18 -18 -18 -18 -19 -19 -19 -19 -19 -19 -19 -20 -20 -20 -20 -20 -20 -20
-12 -12 -12 -12 -12 -12 -12 -13 -13 -14 -15 -15 -16 -16 -16 -17 -16 -16 -16 -17 -17 -18 -18 -18 -18 -18 -18 -18 -18 -18 -18 -18 -18 -18 -18 -18 -18 -18 -19 -19 -19 -19 -20 -20 -20 -20 -21 -20 -20 -20 -20 -20 -20 -20
-12 -12 -12 -12 -13 -13 -14 -14 -15 -15 -16 -16 -16 -17 -17 -17 -17 -17 -17 -18 -18 -18 -18 -18 -18 -18 -18 -17 -17 -17 -17 -17 -17 -17 -17 -18 -18 -19 -19 -20 -20 -20 -21 -21 -21 -21 -21 -21 -21 -21 -21 -21 -21 -21
-12 -12 -13 -13 -14 -14 -15 -15 -15 -16 -16 -17 -17 -17 -17 -17 -17 -17 -17 -18 -18 -18 -17 -17 -17 -17 -17 -17 -17 -17 -17 -17 -18 -18 -18 -18 -19 -19 -20 -21 -21 -21 -22 -22 -22 -22 -22 -21 -21 -21 -21 -22 -22 -21
-13 -13 -14 -14 -15 -15 -15 -16 -16 -17 -17 -17 -17 -17 -17 -17 -17 -17 -17 -17 -17 -17 -17 -17 -17 -17 -17 -17 -18 -18 -18 -18 -18 -18 -19 -19 -20 -20 -21 -22 -22 -22 -22 -22 -22 -22 -22 -22 -22 -22 -22 -22 -22 -22
-15 -15 -15 -16 -16 -16 -16 -17 -17 -17 -17 -17 -17 -17 -16 -16 -16 -16 -16 -16 -17 -17 -17 -17 -18 -18 -18 -18 -18 -18 -18 -19 -19 -19 -20 -20 -21 -21 -22 -22 -22 -22 -22 -22 -22 -22 -22 -22 -23 -23 -23 -22 -22 -23
-16 -16 -16 -17 -17 -17 -17 -17 -17 -17 -16 -16 -16 -16 -16 -16 -16 -16 -16 -16 -17 -17 -18 -18 -18 -19 -19 -19 -19 -19 -19 -19 -20 -20 -21 -21 -22 -22 -22 -23 -23 -23 -23 -23 -23 -23 -23 -23 -23 -23 -23 -23 -23 -24
-16 -17 -17 -17 -17 -17 -17 -17 -17 -16 -16 -16 -16 -16 -16 -16 -16 -16 -17 -17 -18 -18 -18 -19 -19 -19 -19 -19 -20 -20 -20 -21 -21 -22 -22 -22 -22 -23 -23 -23 -23 -23 -23 -23 -23 -23 -23 -24 -24 -24 -24 -24 -24 -24

GFSWCAN_700_temp_345.txt.gz
Temp
-0 -1 -1 -2 -2 -2 -2 -3 -3 -3 -3 -3 -3 -3 -3 -4 -4 -5 -6 -7 -7 -8 -9 -9 -10 -10 -10 -10 -10 -11 -11 -11 -11 -12 -14 -14 -14 -14 -14 -15 -15 -15 -14 -14 -14 -14 -16 -14 -14 -13 -14 -14 -13 -13
-0 -1 -1 -2 -2 -2 -2 -3 -3 -3 -3 -3 -3 -3 -4 -4 -5 -5 -6 -6 -7 -8 -8 -9 -9 -10 -10 -10 -10 -11 -11 -11 -12 -13 -13 -14 -14 -15 -15 -15 -15 -15 -15 -15 -15 -14 -14 -14 -14 -14 -14 -14 -13 -13
-1 -1 -1 -2 -2 -2 -3 -3 -3 -3 -4 -3 -3 -3 -3 -4 -4 -5 -5 -6 -6 -7 -8 -9 -9 -10 -10 -10 -11 -11 -11 -11 -12 -12 -13 -13 -14 -15 -15 -14 -15 -15 -15 -15 -15 -14 -14 -14 -14 -14 -14 -14 -14 -13
-1 -1 -1 -2 -2 -2 -3 -2 -2 -3 -4 -4 -3 -4 -4 -4 -4 -4 -5 -5 -6 -7 -7 -8 -9 -9 -10 -10 -11 -11 -11 -11 -11 -12 -12 -12 -13 -13 -14 -14 -14 -14 -15 -14 -14 -14 -14 -14 -14 -14 -14 -14 -14 -13
-1 -1 -1 -1 -1 -2 -3 -2 -2 -3 -4 -4 -4 -4 -4 -4 -4 -4 -4 -5 -6 -7 -7 -8 -9 -9 -10 -10 -11 -11 -11 -11 -11 -12 -12 -12 -12 -13 -13 -12 -12 -13 -13 -14 -13 -14 -14 -14 -14 -14 -14 -13 -13 -13
-1 -1 -1 -1 -1 -2 -3 -2 -2 -3 -4 -4 -4 -4 -4 -4 -4 -4 -4 -5 -6 -6 -7 -8 -8 -9 -10 -10 -11 -11 -10 -11 -11 -12 -12 -12 -13 -13 -13 -12 -12 -12 -12 -13 -13 -13 -13 -13 -13 -13 -13 -13 -13 -13
-0 -1 -1 -1 -1 -3 -3 -2 -2 -3 -4 -5 -4 -4 -4 -4 -4 -4 -5 -5 -5 -6 -7 -8 -8 -9 -10 -10 -10 -10 -10 -10 -11 -11 -11 -12 -12 -13 -12 -12 -12 -12 -13 -13 -13 -13 -13 -13 -13 -13 -13 -14 -13 -13
-0 -1 -1 -1 -1 -2 -3 -3 -3 -3 -4 -5 -5 -4 -4 -4 -4 -4 -4 -4 -5 -6 -7 -8 -8 -9 -10 -11 -11 -11 -10 -10 -11 -12 -12 -12 -12 -12 -11 -12 -12 -13 -13 -13 -13 -13 -13 -13 -13 -13 -13 -13 -13 -13
-1 -1 -1 -1 -2 -2 -3 -3 -3 -3 -4 -5 -6 -5 -4 -4 -4 -4 -4 -4 -5 -6 -7 -8 -9 -10 -10 -10 -11 -11 -11 -11 -11 -12 -13 -13 -12 -11 -11 -12 -12 -13 -13 -13 -14 -14 -14 -14 -14 -14 -14 -14 -13 -13
-0 -1 -1 -2 -2 -2 -3 -3 -3 -3 -4 -6 -6 -6 -5 -5 -5 -4 -4 -5 -5 -6 -7 -8 -9 -10 -10 -11 -11 -12 -12 -12 -13 -12 -13 -12 -10 -11 -11 -12 -12 -13 -13 -14 -14 -14 -14 -14 -14 -14 -14 -14 -14 -14
-1 -1 -1 -2 -2 -3 -3 -3 -4 -4 -5 -6 -6 -6 -6 -6 -5 -5 -5 -5 -6 -7 -8 -8 -9 -10 -11 -11 -11 -11 -11 -12 -13 -13 -13 -12 -11 -11 -12 -12 -12 -13 -13 -13 -13 -13 -13 -13 -14 -14 -14 -14 -14 -14
-1 -2 -2 -2 -2 -4 -4 -4 -4 -5 -5 -6 -7 -7 -6 -6 -6 -5 -6 -6 -7 -8 -8 -9 -10 -10 -11 -11 -12 -12 -13 -13 -13 -14 -13 -12 -12 -12 -12 -12 -13 -13 -13 -13 -13 -13 -14 -14 -14 -14 -14 -14 -14 -14
-2 -2 -2 -2 -3 -3 -4 -4 -5 -5 -6 -7 -7 -7 -6 -6 -6 -5 -6 -7 -7 -8 -9 -10 -10 -11 -11 -12 -13 -13 -13 -13 -14 -13 -12 -12 -12 -12 -13 -13 -13 -13 -13 -14 -14 -13 -13 -14 -14 -14 -14 -14 -14 -14
-2 -2 -3 -3 -4 -4 -4 -4 -5 -6 -7 -8 -7 -7 -7 -7 -6 -6 -7 -8 -9 -10 -10 -10 -11 -12 -12 -12 -13 -13 -13 -13 -13 -13 -12 -12 -12 -13 -13 -14 -14 -14 -14 -14 -15 -15 -15 -15 -15 -15 -15 -15 -15 -15
-3 -3 -3 -3 -4 -4 -4 -5 -6 -7 -8 -8 -8 -7 -7 -7 -8 -8 -8 -8 -9 -11 -12 -11 -11 -11 -12 -13 -13 -13 -13 -13 -12 -12 -12 -13 -13 -14 -14 -14 -15 -15 -15 -15 -15 -15 -15 -16 -15 -16 -16 -16 -16 -15
-3 -4 -3 -4 -4 -4 -5 -6 -7 -8 -8 -8 -8 -7 -7 -7 -7 -8 -8 -9 -9 -11 -13 -13 -12 -12 -12 -13 -13 -12 -13 -12 -12 -13 -14 -14 -14 -15 -15 -15 -15 -15 -15 -15 -15 -16 -16 -16 -16 -16 -16 -16 -16 -16
-4 -3 -3 -4 -4 -5 -6 -8 -8 -8 -9 -8 -8 -8 -8 -8 -8 -8 -8 -9 -9 -11 -13 -14 -12 -12 -12 -13 -13 -13 -12 -13 -14 -14 -15 -15 -15 -15 -15 -15 -15 -15 -15 -15 -16 -16 -16 -16 -16 -16 -16 -16 -16 -16
-3 -3 -3 -4 -4 -6 -8 -8 -9 -9 -9 -8 -8 -8 -8 -8 -8 -8 -9 -9 -10 -11 -12 -13 -13 -13 -13 -13 -13 -13 -14 -14 -15 -15 -16 -16 -16 -16 -16 -15 -15 -16 -16 -16 -16 -16 -17 -17 -17 -17 -16 -16 -16 -16
-3 -3 -4 -5 -6 -8 -9 -9 -9 -9 -9 -8 -9 -8 -8 -8 -9 -9 -10 -10 -11 -11 -13 -14 -13 -12 -12 -13 -14 -15 -15 -16 -16 -17 -17 -16 -16 -16 -16 -16 -16 -16 -16 -16 -17 -17 -17 -17 -17 -17 -17 -17 -17 -17
-3 -4 -5 -7 -8 -9 -9 -9 -9 -9 -9 -8 -9 -9 -9 -9 -9 -10 -10 -11 -11 -12 -13 -13 -11 -12 -13 -14 -15 -15 -16 -16 -17 -17 -17 -17 -17 -17 -17 -17 -17 -17 -17 -17 -17 -17 -17 -17 -17 -17 -17 -17 -17 -18
-3 -4 -5 -7 -9 -9 -9 -10 -10 -9 -9 -9 -9 -9 -10 -9 -10 -10 -11 -11 -11 -11 -12 -12 -13 -14 -15 -15 -16 -16 -17 -17 -18 -18 -17 -17 -17 -17 -17 -17 -17 -17 -17 -17 -17 -17 -17 -17 -18 -18 -18 -18 -18 -18
-4 -5 -7 -9 -9 -10 -10 -10 -10 -9 -10 -10 -10 -10 -10 -10 -10 -10 -11 -11 -11 -12 -12 -13 -14 -15 -15 -16 -16 -17 -17 -18 -18 -18 -18 -18 -18 -18 -18 -18 -17 -17 -17 -17 -17 -18 -18 -18 -18 -18 -18 -18 -19 -19
-7 -8 -9 -9 -10 -10 -11 -10 -10 -10 -11 -10 -10 -10 -11 -11 -11 -12 -12 -11 -12 -12 -13 -15 -15 -16 -16 -16 -17 -17 -17 -18 -18 -18 -18 -18 -18 -18 -18 -18 -18 -18 -18 -18 -18 -18 -18 -18 -19 -19 -19 -19 -19 -19
-9 -10 -10 -10 -11 -11 -11 -10 -10 -11 -11 -11 -11 -11 -12 -12 -12 -12 -12 -12 -13 -14 -15 -15 -16 -16 -16 -17 -18 -18 -18 -18 -18 -18 -18 -18 -18 -18 -18 -18 -18 -19 -19 -19 -19 -19 -19 -19 -19 -19 -19 -19 -20 -20
-10 -10 -11 -11 -11 -11 -10 -10 -11 -11 -11 -11 -12 -12 -13 -13 -13 -13 -13 -12 -14 -15 -15 -15 -16 -16 -17 -18 -18 -18 -18 -18 -18 -18 -18 -18 -17 -17 -18 -18 -18 -18 -19 -19 -19 -20 -20 -20 -20 -20 -20 -20 -21 -21
-10 -10 -11 -11 -11 -11 -11 -11 -11 -11 -11 -12 -13 -13 -13 -14 -14 -14 -14 -14 -15 -15 -16 -16 -17 -18 -18 -18 -18 -18 -18 -18 -18 -18 -17 -17 -17 -17 -18 -18 -18 -18 -19 -19 -20 -20 -20 -21 -21 -21 -21 -21 -21 -21
-11 -11 -11 -11 -11 -11 -11 -12 -12 -12 -13 -13 -14 -14 -15 -15 -15 -14 -15 -16 -16 -17 -17 -17 -18 -18 -18 -18 -18 -18 -17 -17 -17 -17 -17 -18 -18 -18 -18 -18 -19 -19 -19 -20 -21 -21 -21 -21 -22 -22 -22 -22 -22 -22
-11 -11 -11 -11 -11 -11 -12 -12 -13 -13 -14 -14 -15 -15 -15 -15 -15 -16 -16 -17 -17 -18 -18 -18 -17 -17 -17 -17 -17 -17 -17 -17 -18 -18 -18 -18 -18 -18 -19 -19 -19 -20 -20 -21 -22 -22 -22 -22 -22 -22 -22 -22 -22 -22
-11 -11 -12 -12 -12 -13 -13 -13 -14 -14 -15 -15 -16 -16 -17 -17 -17 -17 -18 -18 -18 -18 -18 -17 -17 -17 -17 -17 -17 -17 -18 -18 -18 -18 -19 -19 -19 -19 -19 -20 -20 -21 -21 -22 -22 -23 -23 -23 -23 -23 -23 -23 -23 -23
-12 -13 -13 -13 -14 -14 -14 -15 -15 -16 -16 -17 -17 -17 -17 -17 -18 -18 -18 -18 -18 -17 -17 -17 -17 -17 -17 -17 -18 -18 -18 -19 -19 -19 -19 -19 -20 -20 -20 -21 -21 -22 -22 -23 -23 -23 -23 -23 -23 -23 -23 -23 -23 -23
-14 -14 -14 -15 -15 -15 -16 -16 -16 -16 -17 -17 -17 -17 -17 -18 -18 -18 -18 -17 -17 -17 -17 -17 -17 -17 -18 -18 -18 -19 -19 -19 -19 -20 -20 -20 -20 -21 -21 -22 -22 -23 -23 -23 -23 -23 -23 -23 -23 -23 -24 -24 -24 -24
-15 -15 -16 -15 -15 -16 -16 -16 -16 -16 -16 -17 -16 -17 -18 -18 -18 -18 -17 -17 -17 -17 -17 -18 -18 -18 -18 -19 -19 -20 -20 -20 -20 -20 -21 -21 -22 -22 -22 -23 -23 -23 -23 -24 -24 -24 -24 -24 -24 -24 -24 -24 -24 -24
-16 -16 -16 -16 -17 -17 -17 -18 -18 -18 -17 -17 -17 -17 -17 -18 -18 -18 -18 -17 -18 -18 -18 -19 -19 -19 -20 -20 -20 -21 -21 -21 -21 -21 -22 -22 -22 -22 -23 -23 -24 -24 -24 -24 -24 -24 -24 -24 -24 -24 -24 -25 -25 -25

GFSWCAN_700_temp_351.txt.gz
Temp
-0 -1 -1 -1 -0 -1 -2 -3 -1 -1 -1 -1 -2 -2 -3 -3 -3 -4 -4 -4 -4 -4 -5 -6 -7 -7 -8 -9 -9 -10 -10 -10 -10 -11 -12 -12 -12 -13 -13 -13 -14 -14 -14 -14 -14 -14 -15 -13 -13 -13 -14 -13 -12 -12
-2 -2 -1 -1 -1 -1 -2 -3 -1 -2 -2 -2 -2 -2 -3 -3 -3 -3 -4 -4 -4 -4 -5 -5 -6 -7 -8 -9 -9 -10 -10 -11 -11 -12 -12 -12 -12 -12 -13 -13 -13 -13 -14 -14 -14 -13 -13 -13 -14 -14 -14 -13 -13 -12
-2 -3 -2 -1 -2 -1 -2 -3 -2 -2 -2 -2 -3 -2 -3 -4 -4 -4 -4 -4 -4 -4 -4 -5 -6 -7 -8 -8 -9 -10 -10 -11 -11 -12 -13 -13 -13 -13 -13 -12 -12 -13 -13 -13 -14 -13 -13 -13 -13 -13 -13 -13 -13 -13
-2 -2 -2 -2 -2 -2 -2 -3 -4 -2 -2 -2 -3 -2 -2 -3 -4 -4 -4 -4 -4 -4 -5 -5 -6 -6 -7 -8 -9 -9 -10 -11 -11 -12 -13 -13 -14 -13 -13 -13 -12 -12 -12 -12 -12 -13 -13 -13 -13 -13 -13 -13 -13 -13
-2 -2 -2 -2 -2 -2 -2 -2 -2 -3 -2 -2 -3 -3 -2 -3 -4 -5 -4 -4 -4 -5 -5 -4 -5 -6 -6 -8 -8 -9 -10 -11 -11 -12 -12 -13 -13 -14 -13 -12 -11 -12 -12 -12 -12 -12 -13 -13 -13 -13 -13 -13 -13 -13
-2 -2 -3 -2 -2 -2 -2 -2 -2 -2 -2 -2 -3 -3 -3 -3 -4 -5 -5 -4 -5 -5 -5 -5 -5 -6 -6 -7 -8 -9 -10 -10 -11 -12 -12 -12 -12 -14 -13 -12 -11 -12 -13 -13 -13 -13 -13 -13 -13 -13 -13 -13 -13 -13
-3 -2 -3 -3 -2 -3 -2 -2 -2 -2 -3 -3 -2 -3 -3 -3 -4 -5 -5 -6 -6 -6 -6 -6 -5 -6 -6 -7 -8 -9 -10 -10 -10 -11 -11 -12 -13 -14 -13 -12 -12 -12 -13 -13 -13 -13 -13 -13 -13 -13 -13 -13 -13 -13
-2 -2 -3 -2 -2 -2 -2 -2 -2 -3 -3 -4 -3 -3 -3 -3 -3 -4 -5 -6 -6 -7 -6 -6 -5 -6 -6 -7 -8 -9 -9 -10 -9 -11 -11 -12 -12 -13 -12 -12 -12 -13 -13 -13 -13 -14 -14 -14 -14 -14 -14 -14 -13 -13
-3 -3 -3 -2 -2 -2 -2 -2 -3 -3 -3 -4 -3 -4 -3 -3 -4 -5 -6 -6 -6 -6 -8 -6 -6 -7 -7 -8 -9 -9 -9 -10 -11 -11 -11 -12 -11 -11 -11 -12 -12 -13 -13 -13 -14 -14 -13 -13 -13 -14 -14 -14 -14 -14
-2 -2 -2 -2 -2 -2 -2 -3 -3 -3 -4 -4 -4 -4 -4 -4 -4 -5 -6 -7 -6 -6 -7 -6 -7 -7 -8 -9 -10 -10 -10 -11 -12 -11 -11 -11 -10 -11 -11 -12 -12 -12 -12 -13 -13 -14 -13 -13 -14 -14 -14 -14 -14 -14
-1 -1 -1 -2 -2 -2 -2 -4 -3 -4 -5 -5 -5 -4 -4 -4 -5 -5 -7 -6 -7 -6 -6 -6 -7 -8 -9 -10 -11 -11 -11 -11 -12 -12 -12 -12 -10 -11 -11 -11 -12 -12 -12 -13 -13 -14 -14 -14 -14 -14 -14 -14 -14 -14
-1 -1 -1 -2 -2 -2 -3 -4 -3 -4 -5 -5 -5 -5 -5 -4 -6 -6 -6 -6 -6 -7 -7 -7 -8 -9 -9 -10 -11 -11 -12 -12 -13 -13 -13 -12 -10 -11 -12 -12 -13 -13 -13 -13 -14 -14 -15 -15 -15 -15 -14 -14 -15 -15
-1 -1 -1 -2 -2 -3 -3 -3 -4 -5 -5 -5 -5 -6 -5 -5 -6 -6 -7 -5 -6 -6 -7 -8 -9 -9 -10 -11 -12 -12 -12 -13 -13 -13 -12 -10 -11 -11 -12 -13 -13 -14 -14 -14 -15 -15 -15 -16 -15 -15 -15 -15 -15 -16
-1 -1 -1 -2 -3 -3 -3 -5 -5 -5 -5 -5 -6 -6 -6 -5 -5 -5 -6 -7 -8 -8 -8 -9 -10 -10 -11 -12 -13 -13 -13 -13 -13 -13 -11 -10 -11 -12 -13 -13 -14 -14 -15 -15 -15 -16 -16 -16 -16 -16 -16 -16 -16 -16
-1 -1 -2 -3 -3 -4 -4 -4 -5 -5 -5 -6 -7 -6 -5 -5 -6 -6 -7 -8 -8 -8 -9 -9 -10 -11 -11 -13 -14 -13 -13 -13 -12 -11 -11 -12 -12 -13 -14 -14 -15 -15 -15 -16 -16 -16 -17 -16 -16 -16 -16 -16 -17 -17
-2 -2 -2 -2 -4 -5 -4 -5 -5 -5 -5 -7 -8 -6 -5 -6 -6 -7 -8 -8 -9 -9 -9 -10 -11 -12 -13 -13 -13 -12 -14 -12 -11 -13 -13 -13 -14 -14 -15 -15 -16 -16 -17 -17 -17 -17 -17 -17 -17 -17 -17 -17 -17 -17
-2 -1 -2 -3 -3 -4 -5 -5 -5 -5 -7 -7 -5 -5 -5 -6 -7 -7 -8 -9 -9 -9 -10 -11 -12 -11 -12 -13 -13 -13 -13 -12 -13 -14 -14 -14 -15 -15 -16 -17 -17 -17 -17 -17 -17 -17 -17 -17 -17 -17 -17 -17 -17 -17
-2 -2 -2 -3 -3 -4 -5 -5 -5 -6 -6 -6 -5 -5 -6 -7 -8 -8 -8 -9 -9 -10 -10 -11 -12 -12 -12 -12 -11 -12 -12 -13 -14 -15 -15 -15 -16 -16 -17 -17 -17 -17 -18 -18 -18 -18 -17 -17 -18 -18 -18 -18 -18 -17
-1 -2 -2 -2 -3 -4 -5 -5 -6 -6 -6 -6 -6 -6 -7 -8 -8 -8 -9 -9 -9 -10 -11 -11 -12 -11 -10 -11 -12 -13 -13 -14 -15 -15 -15 -16 -16 -17 -18 -18 -18 -18 -18 -18 -18 -18 -18 -18 -18 -18 -18 -18 -18 -17
-2 -2 -3 -3 -4 -4 -5 -6 -6 -6 -6 -6 -6 -7 -8 -8 -8 -9 -9 -9 -10 -11 -11 -11 -10 -10 -11 -12 -13 -13 -14 -15 -15 -16 -16 -17 -17 -17 -18 -18 -18 -18 -18 -18 -18 -18 -18 -18 -18 -18 -18 -18 -18 -18
-2 -3 -3 -4 -4 -5 -5 -6 -6 -7 -7 -8 -8 -8 -9 -9 -9 -9 -10 -10 -10 -10 -10 -10 -11 -12 -12 -13 -13 -14 -15 -15 -16 -16 -17 -17 -18 -18 -18 -19 -18 -18 -18 -18 -18 -19 -19 -19 -19 -19 -19 -19 -19 -19
-2 -2 -3 -4 -5 -5 -7 -7 -7 -8 -9 -9 -9 -10 -10 -9 -9 -10 -10 -10 -10 -10 -10 -11 -11 -12 -13 -13 -14 -15 -15 -16 -16 -17 -17 -17 -18 -18 -18 -18 -18 -18 -18 -18 -18 -18 -19 -19 -19 -19 -19 -19 -19 -19
-3 -4 -4 -5 -6 -7 -7 -8 -9 -10 -10 -10 -10 -10 -10 -10 -10 -10 -11 -10 -10 -11 -12 -12 -12 -13 -13 -14 -15 -16 -16 -17 -17 -17 -17 -18 -18 -18 -18 -18 -18 -17 -18 -18 -18 -18 -18 -19 -19 -20 -20 -20 -20 -20
-4 -5 -5 -7 -8 -9 -9 -9 -10 -10 -11 -10 -10 -10 -10 -10 -11 -11 -11 -10 -11 -12 -13 -13 -13 -14 -15 -15 -16 -17 -17 -17 -17 -18 -18 -17 -17 -18 -17 -17 -18 -18 -18 -18 -18 -18 -19 -19 -20 -20 -20 -21 -21 -21
-5 -6 -7 -8 -9 -10 -11 -11 -11 -11 -10 -10 -11 -11 -11 -11 -12 -12 -11 -11 -12 -13 -14 -14 -15 -15 -15 -16 -17 -17 -17 -18 -18 -18 -18 -17 -17 -17 -18 -18 -18 -18 -18 -18 -18 -19 -19 -20 -20 -20 -21 -21 -21 -22
-8 -8 -8 -10 -11 -11 -11 -11 -10 -10 -10 -11 -12 -12 -12 -12 -13 -13 -13 -13 -14 -14 -15 -15 -15 -16 -16 -17 -17 -18 -18 -18 -18 -18 -18 -17 -17 -18 -18 -18 -18 -18 -18 -19 -19 -19 -20 -20 -21 -21 -22 -22 -22 -22
-9 -10 -11 -11 -11 -11 -11 -11 -11 -11 -12 -12 -12 -13 -13 -14 -14 -14 -14 -15 -15 -16 -16 -17 -17 -17 -18 -18 -18 -18 -19 -19 -18 -18 -18 -18 -18 -18 -18 -18 -19 -19 -19 -19 -20 -20 -21 -21 -22 -22 -22 -23 -23 -23
-11 -11 -11 -11 -11 -11 -11 -12 -12 -13 -13 -13 -14 -14 -14 -15 -15 -15 -16 -16 -17 -17 -17 -18 -18 -18 -18 -18 -19 -19 -19 -19 -18 -18 -18 -18 -19 -19 -19 -19 -19 -20 -20 -20 -21 -21 -22 -22 -22 -23 -23 -23 -23 -23
-11 -11 -11 -12 -12 -12 -13 -13 -14 -14 -15 -15 -16 -16 -16 -16 -17 -17 -17 -18 -18 -18 -18 -19 -19 -19 -19 -19 -19 -19 -19 -19 -19 -19 -19 -19 -20 -20 -20 -20 -20 -20 -21 -21 -22 -22 -23 -23 -23 -23 -23 -23 -23 -24
-12 -12 -13 -13 -14 -14 -15 -15 -16 -16 -17 -17 -17 -17 -18 -18 -18 -18 -18 -18 -18 -18 -19 -19 -19 -19 -19 -19 -20 -20 -20 -20 -20 -20 -20 -20 -20 -21 -21 -21 -21 -21 -22 -22 -23 -23 -23 -24 -24 -24 -24 -24 -24 -24
-14 -14 -15 -15 -16 -16 -16 -17 -17 -17 -17 -17 -18 -18 -18 -18 -18 -18 -18 -19 -19 -19 -19 -20 -20 -20 -20 -20 -21 -21 -21 -21 -21 -21 -21 -22 -22 -22 -22 -22 -22 -23 -23 -23 -23 -23 -24 -24 -24 -24 -24 -24 -24 -24
-15 -16 -16 -16 -17 -17 -17 -18 -18 -18 -18 -18 -18 -18 -19 -19 -19 -20 -19 -20 -20 -21 -21 -21 -21 -21 -22 -22 -22 -22 -23 -23 -23 -23 -23 -23 -23 -23 -23 -23 -23 -23 -24 -24 -24 -24 -24 -25 -25 -25 -25 -25 -25 -25
-17 -17 -18 -18 -19 -19 -19 -19 -19 -19 -19 -20 -20 -20 -20 -20 -21 -21 -21 -22 -22 -23 -23 -23 -23 -23 -24 -24 -24 -24 -24 -24 -24 -24 -24 -24 -24 -24 -24 -23 -23 -24 -24 -24 -24 -25 -25 -25 -25 -25 -25 -25 -25 -25

GFSWCAN_700_temp_354.txt.gz
Temp
-2 -2 -2 -2 -2 -2 -1 -2 -1 -1 -1 -1 -1 -1 -2 -2 -3 -3 -4 -4 -4 -4 -4 -4 -5 -6 -6 -7 -8 -9 -9 -9 -10 -11 -11 -12 -12 -12 -12 -12 -12 -13 -13 -13 -13 -14 -14 -13 -13 -13 -14 -13 -13 -13
-1 -2 -3 -2 -2 -2 -2 -2 -2 -2 -1 -1 -2 -1 -2 -2 -2 -3 -4 -4 -4 -4 -4 -4 -5 -6 -6 -7 -7 -8 -9 -10 -11 -12 -12 -13 -12 -12 -12 -12 -12 -12 -13 -14 -13 -12 -13 -13 -13 -13 -13 -13 -13 -13
-2 -2 -2 -2 -3 -2 -2 -2 -2 -2 -2 -2 -2 -2 -2 -2 -2 -3 -4 -4 -4 -4 -4 -4 -5 -5 -6 -7 -7 -8 -8 -10 -11 -12 -12 -13 -13 -13 -13 -12 -12 -12 -12 -12 -13 -12 -13 -13 -13 -13 -13 -13 -13 -13
-2 -2 -2 -3 -2 -2 -2 -2 -2 -2 -2 -2 -2 -3 -2 -3 -3 -3 -3 -4 -5 -5 -5 -5 -5 -5 -6 -6 -7 -8 -8 -9 -10 -11 -12 -13 -14 -13 -13 -13 -12 -12 -12 -12 -12 -12 -12 -12 -13 -13 -13 -13 -13 -13
-2 -2 -2 -3 -3 -3 -3 -3 -2 -2 -2 -2 -2 -2 -3 -3 -3 -3 -3 -4 -5 -5 -6 -5 -5 -4 -5 -6 -7 -7 -8 -9 -9 -10 -11 -12 -11 -12 -12 -12 -11 -12 -12 -12 -13 -13 -12 -12 -12 -13 -13 -13 -12 -12
-2 -3 -3 -3 -3 -3 -3 -3 -2 -2 -2 -2 -3 -2 -3 -3 -3 -3 -3 -3 -5 -6 -7 -7 -5 -5 -6 -6 -7 -7 -8 -9 -9 -10 -10 -10 -11 -13 -13 -12 -11 -12 -12 -12 -12 -13 -13 -13 -13 -13 -13 -13 -13 -12
-3 -3 -3 -3 -3 -3 -2 -3 -2 -2 -2 -3 -3 -3 -3 -3 -3 -4 -4 -4 -6 -6 -7 -8 -6 -5 -5 -6 -7 -8 -8 -9 -9 -9 -9 -11 -12 -13 -12 -10 -11 -11 -12 -12 -12 -13 -13 -13 -13 -13 -13 -13 -13 -13
-2 -3 -3 -3 -3 -3 -3 -3 -3 -2 -2 -3 -4 -3 -3 -3 -3 -3 -3 -3 -5 -7 -8 -7 -6 -6 -6 -7 -7 -8 -8 -8 -8 -9 -10 -10 -12 -12 -10 -10 -11 -11 -12 -12 -12 -13 -13 -13 -13 -13 -13 -13 -14 -13
-2 -2 -3 -3 -4 -3 -4 -2 -2 -2 -3 -3 -3 -6 -4 -3 -3 -4 -3 -3 -3 -5 -7 -7 -7 -7 -7 -7 -8 -8 -9 -9 -8 -10 -10 -11 -10 -10 -9 -10 -10 -11 -12 -12 -12 -12 -13 -13 -13 -13 -13 -14 -14 -14
-2 -2 -3 -3 -3 -4 -4 -2 -3 -2 -2 -4 -5 -6 -6 -5 -5 -4 -3 -3 -3 -3 -4 -4 -6 -7 -8 -8 -8 -9 -10 -10 -10 -10 -11 -11 -8 -9 -9 -10 -10 -11 -12 -12 -12 -12 -13 -13 -13 -14 -14 -14 -14 -14
-1 -2 -2 -2 -3 -2 -2 -2 -3 -3 -4 -5 -6 -5 -5 -5 -5 -4 -4 -4 -5 -5 -6 -5 -6 -6 -8 -8 -9 -10 -10 -11 -12 -12 -12 -11 -8 -9 -9 -10 -10 -11 -12 -12 -12 -13 -13 -13 -14 -14 -14 -14 -14 -14
-1 -2 -2 -2 -2 -2 -3 -2 -4 -4 -4 -5 -6 -5 -5 -5 -6 -5 -6 -6 -6 -6 -6 -6 -7 -8 -8 -9 -11 -11 -11 -12 -12 -13 -13 -11 -8 -9 -10 -11 -11 -12 -12 -13 -13 -14 -14 -14 -15 -15 -15 -15 -15 -15
-1 -1 -2 -2 -2 -2 -3 -4 -4 -4 -5 -6 -5 -6 -6 -5 -6 -5 -5 -5 -6 -7 -7 -7 -8 -10 -10 -10 -11 -12 -13 -12 -14 -13 -12 -9 -10 -10 -11 -12 -12 -13 -13 -14 -15 -15 -15 -16 -16 -16 -16 -16 -16 -15
-1 -2 -2 -2 -2 -3 -3 -4 -4 -4 -6 -6 -6 -6 -6 -5 -5 -4 -4 -5 -6 -7 -8 -8 -9 -10 -11 -11 -11 -12 -13 -14 -13 -13 -11 -10 -11 -12 -12 -12 -13 -14 -14 -15 -15 -16 -15 -16 -16 -17 -17 -17 -17 -17
-2 -2 -2 -2 -3 -3 -3 -4 -4 -5 -6 -6 -6 -5 -4 -4 -5 -5 -5 -6 -6 -7 -8 -8 -9 -10 -11 -12 -12 -13 -14 -14 -13 -11 -12 -12 -13 -14 -14 -14 -15 -15 -15 -16 -16 -16 -17 -17 -17 -17 -17 -17 -17 -17
-2 -2 -2 -3 -3 -3 -3 -5 -5 -6 -6 -6 -6 -6 -4 -5 -5 -6 -6 -6 -7 -8 -8 -9 -10 -11 -12 -12 -13 -13 -14 -12 -11 -12 -12 -13 -13 -14 -15 -15 -15 -16 -16 -17 -17 -17 -17 -17 -17 -17 -17 -17 -17 -17
-2 -2 -1 -2 -3 -3 -3 -4 -5 -6 -6 -6 -6 -5 -5 -4 -5 -6 -6 -7 -8 -8 -9 -10 -11 -10 -12 -12 -13 -12 -10 -10 -11 -12 -13 -13 -14 -15 -16 -16 -16 -17 -17 -17 -17 -18 -18 -18 -18 -18 -18 -18 -18 -18
-1 -1 -1 -2 -3 -3 -3 -4 -5 -6 -6 -5 -4 -5 -5 -5 -6 -6 -7 -8 -8 -9 -9 -10 -11 -11 -11 -11 -10 -10 -11 -11 -12 -13 -13 -14 -15 -16 -16 -16 -17 -17 -18 -18 -18 -18 -18 -18 -18 -18 -18 -18 -18 -18
-1 -2 -2 -3 -2 -3 -3 -4 -5 -5 -5 -6 -6 -6 -6 -6 -6 -7 -8 -8 -9 -9 -10 -10 -11 -10 -10 -10 -10 -11 -12 -13 -13 -13 -14 -15 -16 -16 -17 -17 -17 -18 -18 -18 -18 -18 -18 -18 -18 -18 -18 -18 -18 -18
-1 -1 -1 -2 -3 -3 -3 -5 -5 -5 -5 -5 -5 -6 -6 -6 -7 -8 -8 -8 -9 -10 -10 -10 -9 -10 -10 -11 -12 -12 -13 -13 -14 -14 -15 -16 -16 -17 -17 -17 -18 -18 -18 -19 -18 -18 -18 -18 -18 -19 -19 -19 -19 -19
-2 -2 -1 -1 -2 -5 -5 -5 -5 -5 -5 -6 -6 -7 -7 -7 -8 -8 -8 -9 -9 -9 -10 -10 -10 -11 -11 -12 -12 -13 -13 -13 -14 -15 -16 -16 -17 -17 -17 -18 -18 -18 -18 -18 -18 -18 -18 -18 -18 -19 -19 -19 -19 -19
-2 -2 -2 -2 -4 -6 -6 -6 -5 -6 -6 -7 -8 -8 -9 -9 -9 -9 -9 -10 -10 -10 -10 -10 -11 -12 -12 -12 -12 -13 -14 -14 -15 -16 -17 -17 -17 -18 -18 -18 -18 -18 -18 -18 -18 -18 -18 -18 -18 -19 -19 -20 -20 -20
-2 -2 -4 -5 -7 -8 -7 -7 -7 -7 -8 -9 -9 -9 -10 -9 -9 -9 -10 -10 -10 -11 -11 -12 -12 -12 -12 -13 -13 -14 -15 -16 -16 -17 -17 -17 -18 -18 -18 -18 -17 -17 -17 -18 -18 -18 -18 -18 -19 -19 -19 -20 -20 -21
-2 -4 -6 -8 -9 -9 -9 -8 -9 -9 -9 -10 -10 -10 -10 -10 -10 -11 -11 -11 -11 -11 -12 -12 -12 -13 -13 -14 -14 -15 -16 -16 -17 -17 -18 -18 -19 -19 -18 -18 -17 -18 -18 -18 -18 -18 -18 -18 -19 -19 -20 -20 -21 -21
-5 -7 -8 -8 -9 -10 -10 -9 -10 -11 -10 -10 -10 -11 -11 -11 -12 -12 -12 -12 -12 -12 -13 -13 -14 -14 -15 -15 -16 -16 -16 -17 -17 -18 -18 -19 -19 -19 -18 -18 -18 -18 -18 -18 -18 -18 -19 -19 -19 -20 -21 -21 -21 -22
-8 -8 -8 -9 -10 -10 -11 -11 -10 -10 -10 -11 -11 -12 -11 -12 -13 -13 -13 -13 -14 -14 -14 -15 -15 -16 -16 -17 -17 -17 -17 -18 -18 -18 -18 -19 -19 -19 -19 -18 -18 -19 -19 -19 -19 -19 -19 -20 -20 -21 -21 -22 -22 -22
-9 -9 -10 -10 -10 -10 -10 -11 -11 -11 -12 -12 -12 -13 -13 -13 -14 -14 -14 -15 -15 -15 -16 -16 -17 -17 -18 -18 -18 -18 -18 -18 -18 -19 -19 -19 -19 -19 -19 -19 -19 -19 -20 -19 -19 -20 -20 -21 -21 -22 -22 -23 -23 -23
-10 -10 -10 -11 -11 -11 -12 -12 -13 -13 -13 -13 -14 -14 -14 -15 -15 -15 -16 -16 -17 -17 -17 -18 -18 -18 -19 -19 -19 -19 -19 -19 -19 -20 -20 -20 -20 -20 -20 -20 -20 -20 -20 -20 -21 -21 -21 -22 -22 -23 -23 -23 -23 -23
-12 -12 -12 -12 -12 -13 -13 -14 -14 -14 -15 -15 -16 -16 -16 -17 -17 -17 -18 -18 -18 -18 -19 -19 -19 -19 -19 -19 -20 -20 -20 -20 -20 -20 -21 -21 -21 -21 -21 -21 -21 -21 -21 -21 -22 -22 -22 -23 -23 -23 -24 -24 -24 -24
-13 -13 -13 -14 -14 -15 -15 -16 -16 -17 -17 -17 -17 -18 -18 -18 -18 -19 -19 -19 -19 -19 -19 -20 -20 -20 -21 -21 -21 -21 -21 -21 -21 -22 -22 -23 -23 -23 -23 -22 -22 -22 -22 -23 -23 -23 -23 -23 -24 -24 -24 -24 -24 -24
-14 -14 -15 -16 -16 -17 -17 -17 -17 -17 -18 -18 -18 -19 -19 -19 -20 -20 -20 -21 -21 -21 -22 -22 -22 -22 -22 -23 -23 -23 -23 -23 -23 -23 -23 -23 -24 -23 -23 -23 -23 -23 -24 -24 -24 -24 -24 -24 -24 -24 -24 -25 -25 -25
-15 -16 -16 -17 -17 -18 -18 -18 -19 -19 -19 -19 -20 -20 -20 -21 -21 -22 -23 -23 -23 -24 -24 -24 -24 -24 -25 -25 -25 -25 -25 -25 -25 -25 -25 -25 -24 -25 -25 -24 -24 -24 -24 -24 -24 -24 -24 -25 -25 -25 -25 -25 -25 -25
-17 -17 -18 -18 -19 -19 -19 -19 -20 -20 -21 -22 -22 -22 -22 -23 -23 -24 -25 -25 -25 -26 -26 -26 -27 -27 -27 -27 -27 -27 -27 -26 -26 -26 -26 -26 -26 -26 -25 -25 -25 -25 -25 -25 -25 -25 -25 -25 -25 -25 -25 -26 -26 -26